Time,TemperatureF,DewpointF,PressureIn,WindDirection,WindDirectionDegrees,WindSpeedMPH,WindSpeedGustMPH,Humidity,HourlyPrecipIn,Conditions,Clouds,dailyrainin,SoftwareType,DateUTC
2013-10-04 00:02:00,65.2,62.8,29.80,SSE,166,6.0,6.0,92,0.00,,,0.00,Wunderground v.1.15,2013-10-04 05:02:00,
2013-10-04 00:09:00,65.1,63.0,29.80,South,169,5.0,6.0,93,0.00,,,0.00,Wunderground v.1.15,2013-10-04 05:09:00,
2013-10-04 00:12:00,65.0,62.9,29.80,South,173,5.0,5.0,93,0.00,,,0.00,Wunderground v.1.15,2013-10-04 05:12:00,
2013-10-04 00:21:00,65.0,62.9,29.80,SSE,164,6.0,6.0,93,0.00,,,0.00,Wunderground v.1.15,2013-10-04 05:21:00,
2013-10-04 00:30:00,65.2,63.1,29.80,South,169,6.0,6.0,93,0.00,,,0.00,Wunderground v.1.15,2013-10-04 05:30:00,
2013-10-04 00:33:00,65.3,63.2,29.80,South,173,6.0,10.0,93,0.00,,,0.00,Wunderground v.1.15,2013-10-04 05:33:00,
2013-10-04 00:39:00,65.5,63.4,29.80,South,174,7.0,10.0,93,0.00,,,0.00,Wunderground v.1.15,2013-10-04 05:39:00,
2013-10-04 00:45:00,65.8,64.0,29.80,South,175,7.0,7.0,94,0.00,,,0.00,Wunderground v.1.15,2013-10-04 05:45:00,
2013-10-04 00:51:00,66.0,64.2,29.80,South,173,7.0,7.0,94,0.00,,,0.00,Wunderground v.1.15,2013-10-04 05:51:00,
2013-10-04 00:57:00,66.3,64.5,29.80,South,171,7.0,10.0,94,0.00,,,0.00,Wunderground v.1.15,2013-10-04 05:57:00,
2013-10-04 01:03:00,66.5,64.7,29.80,SSE,159,8.0,9.0,94,0.00,,,0.00,Wunderground v.1.15,2013-10-04 06:03:00,
2013-10-04 01:08:00,66.7,64.9,29.80,South,184,8.0,12.0,94,0.00,,,0.00,Wunderground v.1.15,2013-10-04 06:08:00,
2013-10-04 01:14:00,66.8,65.0,29.80,SSE,163,8.0,9.0,94,0.00,,,0.00,Wunderground v.1.15,2013-10-04 06:14:00,
2013-10-04 01:19:00,66.8,65.0,29.80,South,171,8.0,11.0,94,0.00,,,0.00,Wunderground v.1.15,2013-10-04 06:19:00,
2013-10-04 01:25:00,66.9,65.1,29.80,South,176,7.0,8.0,94,0.00,,,0.00,Wunderground v.1.15,2013-10-04 06:25:00,
2013-10-04 01:30:00,66.9,65.1,29.80,SSE,165,7.0,7.0,94,0.00,,,0.00,Wunderground v.1.15,2013-10-04 06:30:00,
2013-10-04 01:36:00,66.8,65.0,29.80,South,175,7.0,10.0,94,0.00,,,0.00,Wunderground v.1.15,2013-10-04 06:36:00,
2013-10-04 01:41:00,66.9,65.4,29.80,South,178,7.0,9.0,95,0.00,,,0.00,Wunderground v.1.15,2013-10-04 06:41:00,
2013-10-04 01:47:00,67.0,65.5,29.80,South,169,7.0,9.0,95,0.00,,,0.00,Wunderground v.1.15,2013-10-04 06:47:00,
2013-10-04 01:52:00,67.0,65.5,29.80,SSE,161,7.0,11.0,95,0.00,,,0.00,Wunderground v.1.15,2013-10-04 06:52:00,
2013-10-04 01:58:00,67.1,65.6,29.80,SSE,165,7.0,11.0,95,0.00,,,0.00,Wunderground v.1.15,2013-10-04 06:58:00,
2013-10-04 02:04:00,67.2,65.7,29.80,SSE,167,7.0,10.0,95,0.00,,,0.00,Wunderground v.1.15,2013-10-04 07:04:00,
2013-10-04 02:09:00,67.4,65.9,29.80,South,175,8.0,10.0,95,0.00,,,0.00,Wunderground v.1.15,2013-10-04 07:09:00,
2013-10-04 02:14:00,67.5,66.0,29.80,South,180,7.0,13.0,95,0.00,,,0.00,Wunderground v.1.15,2013-10-04 07:14:00,
2013-10-04 02:20:00,67.5,66.0,29.80,South,187,8.0,10.0,95,0.00,,,0.00,Wunderground v.1.15,2013-10-04 07:20:00,
2013-10-04 02:25:00,67.7,66.2,29.79,South,173,9.0,11.0,95,0.00,,,0.00,Wunderground v.1.15,2013-10-04 07:25:00,
2013-10-04 02:31:00,67.7,66.2,29.79,SSE,167,9.0,9.0,95,0.00,,,0.00,Wunderground v.1.15,2013-10-04 07:31:00,
2013-10-04 02:37:00,67.7,66.2,29.79,South,174,8.0,11.0,95,0.00,,,0.00,Wunderground v.1.15,2013-10-04 07:37:00,
2013-10-04 02:43:00,67.7,66.2,29.78,South,174,8.0,9.0,95,0.00,,,0.00,Wunderground v.1.15,2013-10-04 07:43:00,
2013-10-04 02:49:00,67.7,66.2,29.78,South,173,7.0,10.0,95,0.00,,,0.00,Wunderground v.1.15,2013-10-04 07:49:00,
2013-10-04 02:54:00,67.7,66.2,29.78,South,171,7.0,10.0,95,0.00,,,0.00,Wunderground v.1.15,2013-10-04 07:54:00,
2013-10-04 03:00:00,67.6,66.1,29.78,SSE,163,7.0,13.0,95,0.00,,,0.00,Wunderground v.1.15,2013-10-04 08:00:00,
2013-10-04 03:05:00,67.6,66.4,29.79,South,173,7.0,13.0,96,0.00,,,0.00,Wunderground v.1.15,2013-10-04 08:05:00,
2013-10-04 03:11:00,67.5,66.0,29.79,SSE,167,6.0,6.0,95,0.00,,,0.00,Wunderground v.1.15,2013-10-04 08:11:00,
2013-10-04 03:17:00,67.4,66.2,29.79,SSE,159,6.0,7.0,96,0.00,,,0.00,Wunderground v.1.15,2013-10-04 08:17:00,
2013-10-04 03:23:00,67.4,66.2,29.79,SW,217,6.0,12.0,96,0.00,,,0.00,Wunderground v.1.15,2013-10-04 08:23:00,
2013-10-04 03:29:00,67.4,66.2,29.79,South,178,7.0,12.0,96,0.00,,,0.00,Wunderground v.1.15,2013-10-04 08:29:00,
2013-10-04 03:34:00,67.4,66.2,29.79,SSE,168,7.0,7.0,96,0.00,,,0.00,Wunderground v.1.15,2013-10-04 08:34:00,
2013-10-04 03:40:00,67.4,66.2,29.79,South,184,7.0,7.0,96,0.00,,,0.00,Wunderground v.1.15,2013-10-04 08:40:00,
2013-10-04 03:46:00,67.5,66.3,29.79,SSE,157,7.0,11.0,96,0.00,,,0.00,Wunderground v.1.15,2013-10-04 08:46:00,
2013-10-04 03:52:00,67.6,66.4,29.79,SSE,157,7.0,9.0,96,0.00,,,0.00,Wunderground v.1.15,2013-10-04 08:52:00,
2013-10-04 03:58:00,67.6,66.4,29.79,South,169,7.0,9.0,96,0.00,,,0.00,Wunderground v.1.15,2013-10-04 08:58:00,
2013-10-04 04:03:00,67.6,66.4,29.79,South,182,7.0,10.0,96,0.00,,,0.00,Wunderground v.1.15,2013-10-04 09:03:00,
2013-10-04 04:09:00,67.6,66.4,29.79,South,184,7.0,10.0,96,0.00,,,0.00,Wunderground v.1.15,2013-10-04 09:09:00,
2013-10-04 04:15:00,67.6,66.4,29.79,SSW,198,7.0,7.0,96,0.00,,,0.00,Wunderground v.1.15,2013-10-04 09:15:00,
2013-10-04 04:20:00,67.5,66.3,29.80,South,184,6.0,6.0,96,0.00,,,0.00,Wunderground v.1.15,2013-10-04 09:20:00,
2013-10-04 04:26:00,67.5,66.3,29.80,South,173,6.0,7.0,96,0.00,,,0.00,Wunderground v.1.15,2013-10-04 09:26:00,
2013-10-04 04:31:00,67.5,66.3,29.80,South,178,7.0,7.0,96,0.00,,,0.00,Wunderground v.1.15,2013-10-04 09:31:00,
2013-10-04 04:37:00,67.5,66.6,29.79,South,182,7.0,7.0,97,0.00,,,0.00,Wunderground v.1.15,2013-10-04 09:37:00,
2013-10-04 04:42:00,67.5,66.6,29.80,SSW,207,7.0,10.0,97,0.00,,,0.00,Wunderground v.1.15,2013-10-04 09:42:00,
2013-10-04 04:47:00,67.4,66.5,29.80,South,170,6.0,10.0,97,0.00,,,0.00,Wunderground v.1.15,2013-10-04 09:47:00,
2013-10-04 04:53:00,67.4,66.5,29.80,South,173,6.0,7.0,97,0.00,,,0.00,Wunderground v.1.15,2013-10-04 09:53:00,
2013-10-04 04:59:00,67.3,66.4,29.80,SSW,208,5.0,7.0,97,0.00,,,0.00,Wunderground v.1.15,2013-10-04 09:59:00,
2013-10-04 05:05:00,67.3,66.4,29.81,SSE,161,6.0,9.0,97,0.00,,,0.00,Wunderground v.1.15,2013-10-04 10:05:00,
2013-10-04 05:11:00,67.4,66.5,29.81,South,173,6.0,6.0,97,0.00,,,0.00,Wunderground v.1.15,2013-10-04 10:11:00,
2013-10-04 05:17:00,67.4,66.5,29.81,SSW,209,6.0,7.0,97,0.00,,,0.00,Wunderground v.1.15,2013-10-04 10:17:00,
2013-10-04 05:23:00,67.5,66.6,29.80,South,170,6.0,7.0,97,0.00,,,0.00,Wunderground v.1.15,2013-10-04 10:23:00,
2013-10-04 05:28:00,67.6,66.7,29.81,South,174,6.0,12.0,97,0.00,,,0.00,Wunderground v.1.15,2013-10-04 10:28:00,
2013-10-04 05:34:00,67.6,66.7,29.81,South,173,6.0,11.0,97,0.00,,,0.00,Wunderground v.1.15,2013-10-04 10:34:00,
2013-10-04 05:40:00,67.6,66.7,29.81,South,176,6.0,7.0,97,0.00,,,0.00,Wunderground v.1.15,2013-10-04 10:40:00,
2013-10-04 05:45:00,67.6,66.7,29.81,South,177,5.0,7.0,97,0.00,,,0.00,Wunderground v.1.15,2013-10-04 10:45:00,
2013-10-04 05:51:00,67.7,66.8,29.81,South,186,5.0,8.0,97,0.00,,,0.00,Wunderground v.1.15,2013-10-04 10:51:00,
2013-10-04 05:57:00,67.8,66.9,29.81,South,186,5.0,8.0,97,0.00,,,0.00,Wunderground v.1.15,2013-10-04 10:57:00,
2013-10-04 06:02:00,67.9,67.0,29.82,South,178,6.0,10.0,97,0.00,,,0.00,Wunderground v.1.15,2013-10-04 11:02:00,
2013-10-04 06:08:00,68.2,67.3,29.82,SSE,167,7.0,11.0,97,0.00,,,0.00,Wunderground v.1.15,2013-10-04 11:08:00,
2013-10-04 06:13:00,68.3,67.4,29.82,SSW,199,7.0,8.0,97,0.00,,,0.00,Wunderground v.1.15,2013-10-04 11:13:00,
2013-10-04 06:18:00,68.4,67.5,29.82,South,187,7.0,8.0,97,0.00,,,0.00,Wunderground v.1.15,2013-10-04 11:18:00,
2013-10-04 06:24:00,68.5,67.6,29.82,South,169,7.0,9.0,97,0.00,,,0.00,Wunderground v.1.15,2013-10-04 11:24:00,
2013-10-04 06:30:00,68.4,67.5,29.82,SSE,163,7.0,7.0,97,0.00,,,0.00,Wunderground v.1.15,2013-10-04 11:30:00,
2013-10-04 06:36:00,68.4,67.5,29.82,SSW,208,6.0,9.0,97,0.00,,,0.00,Wunderground v.1.15,2013-10-04 11:36:00,
2013-10-04 06:42:00,68.3,67.4,29.82,SSW,209,6.0,12.0,97,0.00,,,0.00,Wunderground v.1.15,2013-10-04 11:42:00,
2013-10-04 06:48:00,68.3,67.4,29.83,SSE,164,6.0,12.0,97,0.00,,,0.00,Wunderground v.1.15,2013-10-04 11:48:00,
2013-10-04 06:54:00,68.2,67.3,29.83,South,172,5.0,6.0,97,0.00,,,0.00,Wunderground v.1.15,2013-10-04 11:54:00,
2013-10-04 06:59:00,68.1,67.2,29.83,South,176,5.0,7.0,97,0.00,,,0.00,Wunderground v.1.15,2013-10-04 11:59:00,
2013-10-04 07:05:00,68.0,67.1,29.83,SSE,148,4.0,5.0,97,0.00,,,0.00,Wunderground v.1.15,2013-10-04 12:05:00,
2013-10-04 07:11:00,67.9,67.0,29.83,SSE,155,4.0,5.0,97,0.00,,,0.00,Wunderground v.1.15,2013-10-04 12:11:00,
2013-10-04 07:17:00,68.0,67.1,29.83,SSE,165,4.0,7.0,97,0.00,,,0.00,Wunderground v.1.15,2013-10-04 12:17:00,
2013-10-04 07:23:00,68.0,67.1,29.83,SSE,167,4.0,6.0,97,0.00,,,0.00,Wunderground v.1.15,2013-10-04 12:23:00,
2013-10-04 07:28:00,68.1,67.2,29.83,SSE,168,4.0,6.0,97,0.00,,,0.00,Wunderground v.1.15,2013-10-04 12:28:00,
2013-10-04 07:33:00,68.1,67.5,29.83,SSE,167,4.0,7.0,98,0.00,,,0.00,Wunderground v.1.15,2013-10-04 12:33:00,
2013-10-04 07:38:00,68.1,67.2,29.83,South,169,5.0,7.0,97,0.00,,,0.00,Wunderground v.1.15,2013-10-04 12:38:00,
2013-10-04 07:44:00,68.2,67.6,29.83,South,178,5.0,6.0,98,0.00,,,0.00,Wunderground v.1.15,2013-10-04 12:44:00,
2013-10-04 07:50:00,68.3,67.7,29.83,South,173,5.0,5.0,98,0.00,,,0.00,Wunderground v.1.15,2013-10-04 12:50:00,
2013-10-04 07:56:00,68.4,67.8,29.83,South,180,5.0,10.0,98,0.00,,,0.00,Wunderground v.1.15,2013-10-04 12:56:00,
2013-10-04 08:02:00,68.5,67.9,29.83,South,180,4.0,5.0,98,0.00,,,0.00,Wunderground v.1.15,2013-10-04 13:02:00,
2013-10-04 08:07:00,68.5,67.9,29.83,South,175,4.0,6.0,98,0.00,,,0.00,Wunderground v.1.15,2013-10-04 13:07:00,
2013-10-04 08:13:00,68.6,68.0,29.83,SSE,152,5.0,10.0,98,0.00,,,0.00,Wunderground v.1.15,2013-10-04 13:13:00,
2013-10-04 08:18:00,68.6,68.0,29.83,South,175,5.0,10.0,98,0.00,,,0.00,Wunderground v.1.15,2013-10-04 13:18:00,
2013-10-04 08:24:00,68.7,68.1,29.83,South,178,5.0,5.0,98,0.00,,,0.00,Wunderground v.1.15,2013-10-04 13:24:00,
2013-10-04 08:30:00,68.8,68.2,29.83,South,174,5.0,5.0,98,0.00,,,0.00,Wunderground v.1.15,2013-10-04 13:30:00,
2013-10-04 08:36:00,68.8,68.2,29.84,SSE,160,6.0,8.0,98,0.00,,,0.00,Wunderground v.1.15,2013-10-04 13:36:00,
2013-10-04 08:41:00,68.9,68.3,29.84,South,175,6.0,6.0,98,0.00,,,0.00,Wunderground v.1.15,2013-10-04 13:41:00,
2013-10-04 08:47:00,69.0,68.4,29.84,South,173,6.0,9.0,98,0.00,,,0.00,Wunderground v.1.15,2013-10-04 13:47:00,
2013-10-04 08:53:00,69.1,68.5,29.84,South,188,6.0,6.0,98,0.00,,,0.00,Wunderground v.1.15,2013-10-04 13:53:00,
2013-10-04 08:59:00,69.2,68.6,29.84,South,182,5.0,7.0,98,0.00,,,0.00,Wunderground v.1.15,2013-10-04 13:59:00,
2013-10-04 09:04:00,69.2,68.6,29.84,South,170,6.0,6.0,98,0.00,,,0.00,Wunderground v.1.15,2013-10-04 14:04:00,
2013-10-04 09:09:00,69.4,68.8,29.84,SSW,212,6.0,9.0,98,0.00,,,0.00,Wunderground v.1.15,2013-10-04 14:09:00,
2013-10-04 09:15:00,69.4,68.5,29.84,SSE,165,6.0,9.0,97,0.00,,,0.00,Wunderground v.1.15,2013-10-04 14:15:00,
2013-10-04 09:20:00,69.5,68.6,29.84,South,182,6.0,6.0,97,0.00,,,0.00,Wunderground v.1.15,2013-10-04 14:20:00,
2013-10-04 09:26:00,69.7,68.8,29.84,South,178,6.0,9.0,97,0.00,,,0.00,Wunderground v.1.15,2013-10-04 14:26:00,
2013-10-04 09:32:00,69.9,69.0,29.84,SW,214,6.0,8.0,97,0.00,,,0.00,Wunderground v.1.15,2013-10-04 14:32:00,
2013-10-04 09:38:00,70.1,69.2,29.84,South,176,6.0,12.0,97,0.00,,,0.00,Wunderground v.1.15,2013-10-04 14:38:00,
2013-10-04 09:43:00,70.4,69.5,29.84,South,169,7.0,10.0,97,0.00,,,0.00,Wunderground v.1.15,2013-10-04 14:43:00,
2013-10-04 09:49:00,70.6,69.4,29.84,SSW,208,7.0,11.0,96,0.00,,,0.00,Wunderground v.1.15,2013-10-04 14:49:00,
2013-10-04 09:54:00,70.8,69.6,29.84,South,171,7.0,9.0,96,0.00,,,0.00,Wunderground v.1.15,2013-10-04 14:54:00,
2013-10-04 10:00:00,71.2,70.0,29.84,SW,225,8.0,8.0,96,0.00,,,0.00,Wunderground v.1.15,2013-10-04 15:00:00,
2013-10-04 10:05:00,71.3,69.8,29.84,South,180,8.0,9.0,95,0.00,,,0.00,Wunderground v.1.15,2013-10-04 15:05:00,
2013-10-04 10:11:00,71.7,70.2,29.84,South,188,8.0,10.0,95,0.00,,,0.00,Wunderground v.1.15,2013-10-04 15:11:00,
2013-10-04 10:17:00,71.9,69.8,29.84,SW,219,9.0,14.0,93,0.00,,,0.00,Wunderground v.1.15,2013-10-04 15:17:00,
2013-10-04 10:22:00,71.9,69.8,29.84,South,188,10.0,13.0,93,0.00,,,0.00,Wunderground v.1.15,2013-10-04 15:22:00,
2013-10-04 10:27:00,72.1,70.0,29.84,SSW,209,10.0,13.0,93,0.00,,,0.00,Wunderground v.1.15,2013-10-04 15:27:00,
2013-10-04 10:28:00,72.1,70.0,29.84,SW,218,10.0,13.0,93,0.00,,,0.00,Wunderground v.1.15,2013-10-04 15:28:00,
2013-10-04 10:33:00,72.2,69.7,29.83,SSW,201,9.0,9.0,92,0.00,,,0.00,Wunderground v.1.15,2013-10-04 15:33:00,
2013-10-04 10:38:00,72.4,69.9,29.83,South,183,10.0,14.0,92,0.00,,,0.00,Wunderground v.1.15,2013-10-04 15:38:00,
2013-10-04 10:44:00,72.5,70.0,29.83,SW,229,10.0,13.0,92,0.00,,,0.00,Wunderground v.1.15,2013-10-04 15:44:00,
2013-10-04 10:49:00,72.8,70.3,29.84,South,190,10.0,16.0,92,0.00,,,0.00,Wunderground v.1.15,2013-10-04 15:49:00,
2013-10-04 10:55:00,73.4,70.6,29.83,SSW,200,9.0,11.0,91,0.00,,,0.00,Wunderground v.1.15,2013-10-04 15:55:00,
2013-10-04 11:01:00,74.1,70.6,29.83,SSE,167,7.0,8.0,89,0.00,,,0.00,Wunderground v.1.15,2013-10-04 16:01:00,
2013-10-04 11:06:00,74.4,70.6,29.83,SW,217,8.0,10.0,88,0.00,,,0.00,Wunderground v.1.15,2013-10-04 16:06:00,
2013-10-04 11:11:00,74.5,70.7,29.83,SSE,156,8.0,9.0,88,0.00,,,0.00,Wunderground v.1.15,2013-10-04 16:11:00,
2013-10-04 11:17:00,74.7,70.9,29.83,SSE,167,7.0,10.0,88,0.00,,,0.00,Wunderground v.1.15,2013-10-04 16:17:00,
2013-10-04 11:23:00,75.0,71.2,29.83,SSE,151,6.0,7.0,88,0.00,,,0.00,Wunderground v.1.15,2013-10-04 16:23:00,
2013-10-04 11:28:00,75.1,71.0,29.83,South,170,7.0,9.0,87,0.00,,,0.00,Wunderground v.1.15,2013-10-04 16:28:00,
2013-10-04 11:34:00,75.1,71.3,29.83,South,169,8.0,8.0,88,0.00,,,0.00,Wunderground v.1.15,2013-10-04 16:34:00,
2013-10-04 11:39:00,75.3,71.2,29.84,SSE,164,8.0,11.0,87,0.00,,,0.00,Wunderground v.1.15,2013-10-04 16:39:00,
2013-10-04 11:44:00,75.5,71.4,29.84,SSE,163,8.0,10.0,87,0.00,,,0.00,Wunderground v.1.15,2013-10-04 16:44:00,
2013-10-04 11:50:00,75.7,71.2,29.84,SSE,165,7.0,12.0,86,0.00,,,0.00,Wunderground v.1.15,2013-10-04 16:50:00,
2013-10-04 11:56:00,75.8,71.3,29.84,South,171,8.0,17.0,86,0.00,,,0.00,Wunderground v.1.15,2013-10-04 16:56:00,
2013-10-04 12:01:00,76.2,71.7,29.84,SSE,150,9.0,13.0,86,0.00,,,0.00,Wunderground v.1.15,2013-10-04 17:01:00,
2013-10-04 12:06:00,76.4,71.6,29.84,SSE,168,9.0,13.0,85,0.00,,,0.00,Wunderground v.1.15,2013-10-04 17:06:00,
2013-10-04 12:12:00,76.5,71.7,29.84,South,173,8.0,12.0,85,0.00,,,0.00,Wunderground v.1.15,2013-10-04 17:12:00,
2013-10-04 12:17:00,76.7,71.5,29.85,SSW,199,8.0,12.0,84,0.00,,,0.00,Wunderground v.1.15,2013-10-04 17:17:00,
2013-10-04 12:23:00,76.7,71.5,29.85,South,171,7.0,7.0,84,0.00,,,0.00,Wunderground v.1.15,2013-10-04 17:23:00,
2013-10-04 12:28:00,76.9,71.7,29.85,South,185,7.0,12.0,84,0.00,,,0.00,Wunderground v.1.15,2013-10-04 17:28:00,
2013-10-04 12:34:00,77.1,71.9,29.85,SSE,159,8.0,11.0,84,0.00,,,0.00,Wunderground v.1.15,2013-10-04 17:34:00,
2013-10-04 13:01:00,78.5,72.9,29.83,SSE,165,6.0,10.0,83,0.00,,,0.00,Wunderground v.1.15,2013-10-04 18:01:00,
2013-10-04 13:07:00,79.1,72.8,29.83,SW,221,6.0,10.0,81,0.00,,,0.00,Wunderground v.1.15,2013-10-04 18:07:00,
2013-10-04 13:12:00,79.5,72.8,29.83,SSW,209,6.0,7.0,80,0.00,,,0.00,Wunderground v.1.15,2013-10-04 18:12:00,
2013-10-04 13:18:00,79.8,72.7,29.82,SSE,167,6.0,7.0,79,0.00,,,0.00,Wunderground v.1.15,2013-10-04 18:18:00,
2013-10-04 13:23:00,80.0,72.9,29.82,South,175,7.0,9.0,79,0.00,,,0.00,Wunderground v.1.15,2013-10-04 18:23:00,
2013-10-04 13:29:00,79.7,72.6,29.83,SSE,157,6.0,9.0,79,0.00,,,0.00,Wunderground v.1.15,2013-10-04 18:29:00,
2013-10-04 13:34:00,79.5,72.4,29.82,SSE,163,4.0,6.0,79,0.00,,,0.00,Wunderground v.1.15,2013-10-04 18:34:00,
2013-10-04 13:40:00,79.7,73.0,29.82,SSE,150,4.0,6.0,80,0.00,,,0.00,Wunderground v.1.15,2013-10-04 18:40:00,
2013-10-04 13:45:00,80.3,72.8,29.81,SE,140,5.0,7.0,78,0.00,,,0.00,Wunderground v.1.15,2013-10-04 18:45:00,
2013-10-04 13:51:00,80.3,72.4,29.81,SSE,150,5.0,6.0,77,0.00,,,0.00,Wunderground v.1.15,2013-10-04 18:51:00,
2013-10-04 13:56:00,80.4,72.9,29.81,SE,130,4.0,6.0,78,0.00,,,0.00,Wunderground v.1.15,2013-10-04 18:56:00,
2013-10-04 14:02:00,80.9,73.0,29.81,SSE,149,5.0,7.0,77,0.00,,,0.00,Wunderground v.1.15,2013-10-04 19:02:00,
2013-10-04 14:07:00,81.6,72.9,29.81,SSE,150,7.0,10.0,75,0.00,,,0.00,Wunderground v.1.15,2013-10-04 19:07:00,
2013-10-04 14:13:00,82.4,73.3,29.80,SSE,161,7.0,8.0,74,0.00,,,0.00,Wunderground v.1.15,2013-10-04 19:13:00,
2013-10-04 14:19:00,82.5,72.6,29.80,SSE,161,7.0,10.0,72,0.00,,,0.00,Wunderground v.1.15,2013-10-04 19:19:00,
2013-10-04 14:24:00,82.3,72.4,29.80,SSE,157,6.0,6.0,72,0.00,,,0.00,Wunderground v.1.15,2013-10-04 19:24:00,
2013-10-04 14:29:00,82.3,72.4,29.80,SSE,157,6.0,9.0,72,0.00,,,0.00,Wunderground v.1.15,2013-10-04 19:29:00,
2013-10-04 14:35:00,82.5,73.0,29.79,SE,142,7.0,12.0,73,0.00,,,0.00,Wunderground v.1.15,2013-10-04 19:35:00,
2013-10-04 14:40:00,82.9,72.9,29.79,SE,145,7.0,7.0,72,0.00,,,0.00,Wunderground v.1.15,2013-10-04 19:40:00,
2013-10-04 14:46:00,82.5,72.6,29.79,SSE,147,8.0,10.0,72,0.00,,,0.00,Wunderground v.1.15,2013-10-04 19:46:00,
2013-10-04 14:51:00,82.3,72.4,29.79,SSE,156,8.0,9.0,72,0.00,,,0.00,Wunderground v.1.15,2013-10-04 19:51:00,
2013-10-04 14:57:00,82.2,72.3,29.79,SSE,155,9.0,12.0,72,0.00,,,0.00,Wunderground v.1.15,2013-10-04 19:57:00,
2013-10-04 15:03:00,82.1,72.2,29.79,SE,128,7.0,11.0,72,0.00,,,0.00,Wunderground v.1.15,2013-10-04 20:03:00,
2013-10-04 15:09:00,82.2,71.9,29.78,SSE,147,7.0,11.0,71,0.00,,,0.00,Wunderground v.1.15,2013-10-04 20:09:00,
2013-10-04 15:15:00,82.1,71.8,29.78,SSE,148,8.0,12.0,71,0.00,,,0.00,Wunderground v.1.15,2013-10-04 20:15:00,
2013-10-04 15:21:00,82.0,72.1,29.78,SE,143,8.0,9.0,72,0.00,,,0.00,Wunderground v.1.15,2013-10-04 20:21:00,
2013-10-04 15:26:00,82.0,72.1,29.78,SSE,161,8.0,13.0,72,0.00,,,0.00,Wunderground v.1.15,2013-10-04 20:26:00,
2013-10-04 15:31:00,82.3,72.0,29.78,SE,144,7.0,7.0,71,0.00,,,0.00,Wunderground v.1.15,2013-10-04 20:31:00,
2013-10-04 15:37:00,82.3,71.5,29.78,SE,145,7.0,10.0,70,0.00,,,0.00,Wunderground v.1.15,2013-10-04 20:37:00,
2013-10-04 15:42:00,82.4,72.0,29.78,SE,144,7.0,7.0,71,0.00,,,0.00,Wunderground v.1.15,2013-10-04 20:42:00,
2013-10-04 15:48:00,82.6,71.8,29.78,SSE,153,7.0,11.0,70,0.00,,,0.00,Wunderground v.1.15,2013-10-04 20:48:00,
2013-10-04 15:54:00,82.7,71.1,29.78,SE,142,8.0,11.0,68,0.00,,,0.00,Wunderground v.1.15,2013-10-04 20:54:00,
2013-10-04 15:59:00,82.8,70.7,29.78,SSE,155,7.0,11.0,67,0.00,,,0.00,Wunderground v.1.15,2013-10-04 20:59:00,
2013-10-04 16:05:00,82.9,71.3,29.78,SSE,157,7.0,12.0,68,0.00,,,0.00,Wunderground v.1.15,2013-10-04 21:05:00,
2013-10-04 16:11:00,83.2,70.2,29.78,SE,146,8.0,10.0,65,0.00,,,0.00,Wunderground v.1.15,2013-10-04 21:11:00,
2013-10-04 16:17:00,83.3,70.3,29.78,SSE,150,8.0,10.0,65,0.00,,,0.00,Wunderground v.1.15,2013-10-04 21:17:00,
2013-10-04 16:23:00,83.3,70.8,29.78,South,180,5.0,7.0,66,0.00,,,0.00,Wunderground v.1.15,2013-10-04 21:23:00,
2013-10-04 16:29:00,83.2,69.8,29.78,SSE,158,5.0,9.0,64,0.00,,,0.00,Wunderground v.1.15,2013-10-04 21:29:00,
2013-10-04 16:34:00,83.2,69.8,29.78,South,170,6.0,9.0,64,0.00,,,0.00,Wunderground v.1.15,2013-10-04 21:34:00,
2013-10-04 16:40:00,83.2,69.8,29.78,SSE,152,7.0,11.0,64,0.00,,,0.00,Wunderground v.1.15,2013-10-04 21:40:00,
2013-10-04 16:46:00,83.1,69.7,29.78,SSE,159,6.0,11.0,64,0.00,,,0.00,Wunderground v.1.15,2013-10-04 21:46:00,
2013-10-04 16:52:00,83.0,69.6,29.78,SSE,161,6.0,6.0,64,0.00,,,0.00,Wunderground v.1.15,2013-10-04 21:52:00,
2013-10-04 16:57:00,83.0,69.6,29.78,SSE,147,7.0,10.0,64,0.00,,,0.00,Wunderground v.1.15,2013-10-04 21:57:00,
2013-10-04 17:03:00,83.2,70.2,29.78,SSE,152,7.0,8.0,65,0.00,,,0.00,Wunderground v.1.15,2013-10-04 22:03:00,
2013-10-04 17:09:00,83.4,70.4,29.78,South,171,6.0,8.0,65,0.00,,,0.00,Wunderground v.1.15,2013-10-04 22:09:00,
2013-10-04 17:14:00,83.6,70.6,29.78,SSE,152,6.0,11.0,65,0.00,,,0.00,Wunderground v.1.15,2013-10-04 22:14:00,
2013-10-04 17:19:00,83.7,70.2,29.78,SSE,157,7.0,11.0,64,0.00,,,0.00,Wunderground v.1.15,2013-10-04 22:19:00,
2013-10-04 17:24:00,83.6,70.1,29.78,South,169,8.0,11.0,64,0.00,,,0.00,Wunderground v.1.15,2013-10-04 22:24:00,
2013-10-04 17:30:00,83.3,69.8,29.78,SSE,155,8.0,9.0,64,0.00,,,0.00,Wunderground v.1.15,2013-10-04 22:30:00,
2013-10-04 17:36:00,82.9,69.9,29.78,SSE,154,7.0,10.0,65,0.00,,,0.00,Wunderground v.1.15,2013-10-04 22:36:00,
2013-10-04 17:42:00,82.5,70.0,29.78,SSE,153,6.0,7.0,66,0.00,,,0.00,Wunderground v.1.15,2013-10-04 22:42:00,
2013-10-04 17:48:00,82.0,70.0,29.78,SSE,155,6.0,7.0,67,0.00,,,0.00,Wunderground v.1.15,2013-10-04 22:48:00,
2013-10-04 17:54:00,81.5,69.9,29.78,SSE,154,5.0,5.0,68,0.00,,,0.00,Wunderground v.1.15,2013-10-04 22:54:00,
2013-10-04 17:59:00,81.1,70.0,29.78,SSE,154,4.0,5.0,69,0.00,,,0.00,Wunderground v.1.15,2013-10-04 22:59:00,
2013-10-04 18:05:00,80.7,70.0,29.78,SSE,154,4.0,4.0,70,0.00,,,0.00,Wunderground v.1.15,2013-10-04 23:05:00,
2013-10-04 18:11:00,80.5,69.8,29.78,SSE,154,3.0,3.0,70,0.00,,,0.00,Wunderground v.1.15,2013-10-04 23:11:00,
2013-10-04 18:17:00,80.2,69.9,29.78,SSE,154,2.0,3.0,71,0.00,,,0.00,Wunderground v.1.15,2013-10-04 23:17:00,
2013-10-04 18:23:00,80.0,69.7,29.77,SSE,154,3.0,3.0,71,0.00,,,0.00,Wunderground v.1.15,2013-10-04 23:23:00,
2013-10-04 18:28:00,79.6,69.8,29.77,SSE,154,3.0,4.0,72,0.00,,,0.00,Wunderground v.1.15,2013-10-04 23:28:00,
2013-10-04 18:33:00,79.3,69.5,29.77,SSE,154,3.0,4.0,72,0.00,,,0.00,Wunderground v.1.15,2013-10-04 23:33:00,
2013-10-04 18:39:00,79.0,69.6,29.77,SSE,154,3.0,4.0,73,0.00,,,0.00,Wunderground v.1.15,2013-10-04 23:39:00,
2013-10-04 18:44:00,78.7,69.3,29.77,SSE,154,3.0,4.0,73,0.00,,,0.00,Wunderground v.1.15,2013-10-04 23:44:00,
2013-10-04 18:50:00,78.3,69.3,29.77,SSE,154,3.0,4.0,74,0.00,,,0.00,Wunderground v.1.15,2013-10-04 23:50:00,
2013-10-04 18:55:00,77.8,69.2,29.77,SSE,154,4.0,4.0,75,0.00,,,0.00,Wunderground v.1.15,2013-10-04 23:55:00,
2013-10-04 19:01:00,77.4,68.9,29.77,SSE,154,4.0,4.0,75,0.00,,,0.00,Wunderground v.1.15,2013-10-05 00:01:00,
2013-10-04 19:07:00,77.1,68.9,29.77,SSE,154,4.0,4.0,76,0.00,,,0.00,Wunderground v.1.15,2013-10-05 00:07:00,
2013-10-04 19:13:00,77.0,68.9,29.78,SSE,154,4.0,4.0,76,0.00,,,0.00,Wunderground v.1.15,2013-10-05 00:13:00,
2013-10-04 19:19:00,76.8,68.7,29.78,SSE,154,4.0,5.0,76,0.00,,,0.00,Wunderground v.1.15,2013-10-05 00:19:00,
2013-10-04 19:24:00,76.7,68.6,29.78,SSE,154,3.0,4.0,76,0.00,,,0.00,Wunderground v.1.15,2013-10-05 00:24:00,
2013-10-04 19:30:00,76.6,68.8,29.78,SSE,154,3.0,4.0,77,0.00,,,0.00,Wunderground v.1.15,2013-10-05 00:30:00,
2013-10-04 19:35:00,76.4,68.7,29.78,SSE,154,3.0,4.0,77,0.00,,,0.00,Wunderground v.1.15,2013-10-05 00:35:00,
2013-10-04 19:40:00,76.3,68.6,29.78,SSE,154,3.0,4.0,77,0.00,,,0.00,Wunderground v.1.15,2013-10-05 00:40:00,
2013-10-04 19:46:00,76.3,68.6,29.78,SSE,154,4.0,5.0,77,0.00,,,0.00,Wunderground v.1.15,2013-10-05 00:46:00,
2013-10-04 19:52:00,76.4,68.7,29.79,SSE,154,4.0,4.0,77,0.00,,,0.00,Wunderground v.1.15,2013-10-05 00:52:00,
2013-10-04 19:57:00,76.5,68.4,29.79,SSE,154,4.0,5.0,76,0.00,,,0.00,Wunderground v.1.15,2013-10-05 00:57:00,
2013-10-04 20:03:00,76.6,68.5,29.79,SSE,153,4.0,5.0,76,0.00,,,0.00,Wunderground v.1.15,2013-10-05 01:03:00,
2013-10-04 20:08:00,76.7,68.6,29.79,SSE,153,5.0,5.0,76,0.00,,,0.00,Wunderground v.1.15,2013-10-05 01:08:00,
2013-10-04 20:14:00,76.7,68.6,29.79,SSE,153,5.0,5.0,76,0.00,,,0.00,Wunderground v.1.15,2013-10-05 01:14:00,
2013-10-04 20:19:00,76.7,68.6,29.79,SSE,155,6.0,6.0,76,0.00,,,0.00,Wunderground v.1.15,2013-10-05 01:19:00,
2013-10-04 20:25:00,76.6,68.5,29.79,SSE,154,6.0,9.0,76,0.00,,,0.00,Wunderground v.1.15,2013-10-05 01:25:00,
2013-10-04 20:30:00,76.4,68.7,29.79,SSE,153,7.0,7.0,77,0.00,,,0.00,Wunderground v.1.15,2013-10-05 01:30:00,
2013-10-04 20:35:00,76.2,68.5,29.79,SSE,152,7.0,7.0,77,0.00,,,0.00,Wunderground v.1.15,2013-10-05 01:35:00,
2013-10-04 20:40:00,76.1,68.4,29.79,SSE,150,7.0,7.0,77,0.00,,,0.00,Wunderground v.1.15,2013-10-05 01:40:00,
2013-10-04 20:46:00,75.9,68.5,29.79,SSE,152,7.0,9.0,78,0.00,,,0.00,Wunderground v.1.15,2013-10-05 01:46:00,
2013-10-04 20:52:00,75.8,68.4,29.79,SSE,155,8.0,10.0,78,0.00,,,0.00,Wunderground v.1.15,2013-10-05 01:52:00,
2013-10-04 20:58:00,75.9,68.9,29.79,SSE,155,8.0,11.0,79,0.00,,,0.00,Wunderground v.1.15,2013-10-05 01:58:00,
2013-10-04 21:03:00,75.9,68.9,29.79,SSE,155,8.0,9.0,79,0.00,,,0.00,Wunderground v.1.15,2013-10-05 02:03:00,
2013-10-04 21:09:00,75.7,68.7,29.80,SSE,153,7.0,9.0,79,0.00,,,0.00,Wunderground v.1.15,2013-10-05 02:09:00,
2013-10-04 21:15:00,75.5,68.9,29.79,SSE,154,7.0,10.0,80,0.00,,,0.00,Wunderground v.1.15,2013-10-05 02:15:00,
2013-10-04 21:20:00,75.3,69.1,29.80,SSE,152,7.0,10.0,81,0.00,,,0.00,Wunderground v.1.15,2013-10-05 02:20:00,
2013-10-04 21:25:00,75.2,69.0,29.79,SSE,152,7.0,10.0,81,0.00,,,0.00,Wunderground v.1.15,2013-10-05 02:25:00,
2013-10-04 21:30:00,75.1,68.9,29.79,SSE,152,7.0,7.0,81,0.00,,,0.00,Wunderground v.1.15,2013-10-05 02:30:00,
2013-10-04 21:36:00,75.1,69.2,29.79,SSE,155,8.0,10.0,82,0.00,,,0.00,Wunderground v.1.15,2013-10-05 02:36:00,
2013-10-04 21:42:00,74.9,69.0,29.79,SSE,156,8.0,8.0,82,0.00,,,0.00,Wunderground v.1.15,2013-10-05 02:42:00,
2013-10-04 21:48:00,74.8,69.3,29.78,SSE,153,8.0,10.0,83,0.00,,,0.00,Wunderground v.1.15,2013-10-05 02:48:00,
2013-10-04 21:54:00,74.6,69.1,29.78,SSE,153,8.0,10.0,83,0.00,,,0.00,Wunderground v.1.15,2013-10-05 02:54:00,
2013-10-04 22:00:00,74.4,68.9,29.78,SSE,147,8.0,10.0,83,0.00,,,0.00,Wunderground v.1.15,2013-10-05 03:00:00,
2013-10-04 22:05:00,74.2,69.1,29.78,SSE,159,8.0,10.0,84,0.00,,,0.00,Wunderground v.1.15,2013-10-05 03:05:00,
2013-10-04 22:11:00,74.3,69.1,29.78,SSE,147,8.0,9.0,84,0.00,,,0.00,Wunderground v.1.15,2013-10-05 03:11:00,
2013-10-04 22:17:00,74.2,69.1,29.78,SSE,161,8.0,10.0,84,0.00,,,0.00,Wunderground v.1.15,2013-10-05 03:17:00,
2013-10-04 22:22:00,74.2,69.1,29.78,SSE,159,8.0,8.0,84,0.00,,,0.00,Wunderground v.1.15,2013-10-05 03:22:00,
2013-10-04 22:28:00,74.2,69.4,29.78,SSE,159,8.0,8.0,85,0.00,,,0.00,Wunderground v.1.15,2013-10-05 03:28:00,
2013-10-04 22:33:00,74.1,69.3,29.79,SSE,150,7.0,7.0,85,0.00,,,0.00,Wunderground v.1.15,2013-10-05 03:33:00,
2013-10-04 22:38:00,74.0,69.2,29.79,SSE,157,6.0,8.0,85,0.00,,,0.00,Wunderground v.1.15,2013-10-05 03:38:00,
2013-10-04 22:44:00,73.9,69.1,29.79,SSE,155,7.0,9.0,85,0.00,,,0.00,Wunderground v.1.15,2013-10-05 03:44:00,
2013-10-04 22:50:00,73.9,69.1,29.79,SSE,162,6.0,6.0,85,0.00,,,0.00,Wunderground v.1.15,2013-10-05 03:50:00,
2013-10-04 22:55:00,73.8,69.0,29.79,SSE,165,6.0,9.0,85,0.00,,,0.00,Wunderground v.1.15,2013-10-05 03:55:00,
2013-10-04 23:00:00,73.8,69.0,29.79,SSE,164,7.0,7.0,85,0.00,,,0.00,Wunderground v.1.15,2013-10-05 04:00:00,
2013-10-04 23:01:00,73.7,68.9,29.79,SSE,167,7.0,8.0,85,0.00,,,0.00,Wunderground v.1.15,2013-10-05 04:01:00,
2013-10-04 23:02:00,73.7,69.2,29.79,SSE,162,7.0,8.0,86,0.00,,,0.00,Wunderground v.1.15,2013-10-05 04:02:00,
2013-10-04 23:03:00,73.7,69.2,29.79,SSE,153,7.0,8.0,86,0.00,,,0.00,Wunderground v.1.15,2013-10-05 04:03:00,
2013-10-04 23:06:00,73.8,69.3,29.79,SSE,159,7.0,9.0,86,0.00,,,0.00,Wunderground v.1.15,2013-10-05 04:06:00,
2013-10-04 23:09:00,73.7,69.2,29.80,SSE,161,7.0,9.0,86,0.00,,,0.00,Wunderground v.1.15,2013-10-05 04:09:00,
2013-10-04 23:14:00,73.7,69.2,29.79,SSE,159,7.0,10.0,86,0.00,,,0.00,Wunderground v.1.15,2013-10-05 04:14:00,
2013-10-04 23:17:00,73.7,69.2,29.79,SSE,163,7.0,10.0,86,0.00,,,0.00,Wunderground v.1.15,2013-10-05 04:17:00,
2013-10-04 23:23:00,73.6,69.2,29.79,South,175,7.0,9.0,86,0.00,,,0.00,Wunderground v.1.15,2013-10-05 04:23:00,
2013-10-04 23:29:00,73.4,69.0,29.79,South,171,6.0,9.0,86,0.00,,,0.00,Wunderground v.1.15,2013-10-05 04:29:00,
2013-10-04 23:35:00,73.3,69.2,29.79,South,190,7.0,9.0,87,0.00,,,0.00,Wunderground v.1.15,2013-10-05 04:35:00,
2013-10-04 23:40:00,73.2,69.1,29.79,SSE,165,6.0,6.0,87,0.00,,,0.00,Wunderground v.1.15,2013-10-05 04:40:00,
2013-10-04 23:45:00,73.1,69.0,29.79,SSE,163,6.0,9.0,87,0.00,,,0.00,Wunderground v.1.15,2013-10-05 04:45:00,
2013-10-04 23:50:00,73.1,69.0,29.79,SSE,159,6.0,6.0,87,0.00,,,0.00,Wunderground v.1.15,2013-10-05 04:50:00,
2013-10-04 23:55:00,73.0,68.9,29.79,SSE,166,6.0,7.0,87,0.00,,,0.00,Wunderground v.1.15,2013-10-05 04:55:00,